OPS 4682 DEB, 38373

Orbit data source: Space-Track

OPS 4682 DEB, 38373 is space debris in LEO originally from a launch on Sat, 03 Apr 1965 UTC launched from the Air Force Western Test Range (AFWTR). Debris objects in space refer to the collection of defunct objects orbiting the Earth. Examples of debris include non-operational satellites, rocket bodies, and fragments generated from explosions, collisions, or faulty payload assembly.

Loading next visibility...
Identifier
38373, 1965-027CA
Orbit
LEO
Country
Flag of USUS
Related business
Manufacturer
Unknown
Mission
Spacecraft
Bus & Motor
Unknown
Mass
Unknown
Launch date (UTC)
1965-04-03 (61 years ago)
Launch vehicle
Unknown
Launch site
Air Force Western Test Range (AFWTR)
Object type
Payload
Rocket body
Debris
Shape & HBR
Unknown shape, 0.1 m
Radar Cross Section
Small (<0.1 m²)

Expand to show TLE details & history
Last TLE update: 1 day ago

TLE from 1 day ago
0 OPS 4682 DEB
1 38373U 65027CA  26035.41353490  .00000843  00000-0  27345-2 0  9997
2 38373  90.2655  27.1654 0030426 173.9356 186.2141 13.00984604599772
Epoch: 2026-02-04T09:55Z
TLE epoch observation values (Epoch: 2026-02-04T09:55:29.415Z)
Latitude
-0.00001°
Longitude
103.71237°
Altitude
1,284.22 km
Speed
7.203 km/s
True Right ascension
01h 48m 39s
True Declination
0° 00' 00"
Sunlit
Object was in daylight at epoch
Visualization orbit readout
Latitude
Unknown
Longitude
Unknown
Altitude
Unknown
Speed
Unknown
Apparent Right ascension
Unknown
Apparent Declination
Unknown
Sunlit
N/A
Visualization observer readout
Local Sidereal Time
13:36:34
Azimuth
Unknown
Elevation
Unknown
Doppler factor
Unknown
Orbital elements
Apogee altitude
1,278.583 km
Perigee altitude
1,232.131 km
Semi-major axis
7,633.494 km
Eccentricity
0.00304
Inclination
90.2655°
RAAN
27.1654°
Arg. of periapsis
173.9356°
True anomaly
186.1765°
Mean anomaly
186.2141°
Eccentric anomaly
186.19529°
Mean motion
3.2543 °/min
Orbital period
110.62 mins
BSTAR
0.0027345
Loading maneuver chart data...
Computing Atmospheric mass density...
Loading historical data...
Loading historical data...
Loading historical data...
Loading historical data...
Loading historical data...
Loading historical data...
Loading historical data...

Documentation

Showing up to 5 results
|